07/05/2026 / 12/05/2026
| Fecha / Hora | Descripción | Porcentaje Nubes | Temperatura | Humedad | Viento | |
| jueves 07/05/2026 12:00 hs | nubes | 100 % | 24.5 ° | 90 % | 7.8 Km/h | |
| jueves 07/05/2026 15:00 hs | nubes | 100 % | 24.8 ° | 85 % | 8.4 Km/h | |
| jueves 07/05/2026 18:00 hs | muy nuboso | 53 % | 24 ° | 95 % | 6.1 Km/h | |
| jueves 07/05/2026 21:00 hs | muy nuboso | 51 % | 23.4 ° | 97 % | 4.9 Km/h | |
| viernes 08/05/2026 00:00 hs | nubes | 91 % | 23.2 ° | 97 % | 7.1 Km/h | |
| viernes 08/05/2026 03:00 hs | nubes | 95 % | 22.3 ° | 97 % | 7.3 Km/h | |
| viernes 08/05/2026 06:00 hs | nubes | 100 % | 19.8 ° | 97 % | 6.6 Km/h | |
| viernes 08/05/2026 09:00 hs | nubes | 100 % | 21.4 ° | 88 % | 5.8 Km/h | |
| viernes 08/05/2026 12:00 hs | nubes | 100 % | 23.7 ° | 76 % | 5.7 Km/h | |
| viernes 08/05/2026 15:00 hs | nubes | 100 % | 25.1 ° | 72 % | 9 Km/h | |
| viernes 08/05/2026 18:00 hs | nubes | 100 % | 22.8 ° | 82 % | 4.3 Km/h | |
| viernes 08/05/2026 21:00 hs | lluvia ligera | 100 % | 20 ° | 95 % | 6.2 Km/h | |
| sábado 09/05/2026 00:00 hs | lluvia ligera | 100 % | 19.8 ° | 97 % | 8.3 Km/h | |
| sábado 09/05/2026 03:00 hs | lluvia ligera | 100 % | 16.3 ° | 95 % | 11.2 Km/h | |
| sábado 09/05/2026 06:00 hs | lluvia ligera | 100 % | 15.1 ° | 97 % | 7.3 Km/h | |
| sábado 09/05/2026 09:00 hs | lluvia moderada | 100 % | 15.4 ° | 98 % | 6.1 Km/h | |
| sábado 09/05/2026 12:00 hs | lluvia moderada | 100 % | 15.8 ° | 97 % | 5.1 Km/h | |
| sábado 09/05/2026 15:00 hs | lluvia moderada | 100 % | 15.4 ° | 96 % | 6.9 Km/h | |
| sábado 09/05/2026 18:00 hs | lluvia moderada | 100 % | 14.4 ° | 96 % | 12 Km/h | |
| sábado 09/05/2026 21:00 hs | lluvia moderada | 100 % | 13.5 ° | 96 % | 11.7 Km/h | |
| domingo 10/05/2026 00:00 hs | lluvia moderada | 100 % | 12.4 ° | 95 % | 9 Km/h | |
| domingo 10/05/2026 03:00 hs | lluvia moderada | 100 % | 11.5 ° | 97 % | 5.5 Km/h | |
| domingo 10/05/2026 06:00 hs | lluvia ligera | 100 % | 11.6 ° | 94 % | 6.2 Km/h | |
| domingo 10/05/2026 09:00 hs | nubes | 100 % | 11 ° | 91 % | 9.8 Km/h | |
| domingo 10/05/2026 12:00 hs | nubes dispersas | 37 % | 16.1 ° | 51 % | 11.2 Km/h | |
| domingo 10/05/2026 15:00 hs | algo de nubes | 19 % | 18.1 ° | 42 % | 11.1 Km/h | |
| domingo 10/05/2026 18:00 hs | cielo claro | 0 % | 13.8 ° | 63 % | 3.6 Km/h | |
| domingo 10/05/2026 21:00 hs | cielo claro | 1 % | 11.8 ° | 86 % | 5.4 Km/h | |
| lunes 11/05/2026 00:00 hs | cielo claro | 0 % | 9.3 ° | 90 % | 7.3 Km/h | |
| lunes 11/05/2026 03:00 hs | cielo claro | 0 % | 7.5 ° | 81 % | 8.8 Km/h | |
| lunes 11/05/2026 06:00 hs | cielo claro | 0 % | 6.4 ° | 84 % | 9.6 Km/h | |
| lunes 11/05/2026 09:00 hs | cielo claro | 0 % | 10.6 ° | 61 % | 8.4 Km/h | |
| lunes 11/05/2026 12:00 hs | cielo claro | 4 % | 17.1 ° | 39 % | 3.6 Km/h | |
| lunes 11/05/2026 15:00 hs | cielo claro | 4 % | 18.4 ° | 42 % | 7 Km/h | |
| lunes 11/05/2026 18:00 hs | cielo claro | 0 % | 12.8 ° | 77 % | 5.7 Km/h | |
| lunes 11/05/2026 21:00 hs | cielo claro | 0 % | 11.8 ° | 84 % | 6.3 Km/h | |
| martes 12/05/2026 00:00 hs | cielo claro | 1 % | 10.6 ° | 89 % | 6.3 Km/h | |
| martes 12/05/2026 03:00 hs | cielo claro | 2 % | 9.5 ° | 94 % | 7.2 Km/h | |
| martes 12/05/2026 06:00 hs | cielo claro | 6 % | 8.9 ° | 93 % | 6.7 Km/h | |
| martes 12/05/2026 09:00 hs | cielo claro | 3 % | 13.2 ° | 74 % | 6.6 Km/h |
Fuente: Open Weather Map
© 2009 / 2026 - BrasilPlayas.com
Diseño y desarrollo: ArraialWebDesign
Los artículos publicados en esta web son propiedad intelectual de sus respectivos autores, que se reservan todos los derechos sobre los mismos
Las imágenes contenidas en este sitio están sujetas a la respectiva licencia y acreditación que las acompaña
Este website usa Cookies. Saber más sobre nuestra política de Cookies